World > North America > United States > Mississippi

Gravestown, Mississippi Regional Weather

Lat: 34.75N, Lon: 89.08W
Wx Zone: MSZ004Web Search

Our weather pages are very print friendly and they make great conversation starters.

Feedback


°F Click to change Gravestown hourly weather to Imperial units.Click to change Gravestown hourly weather to Metric units. °C
Gravestown Weather Map
UTC Time: 4/12/2021, 16:58
Your Time:

Gravestown, MS Regional Weather

Expires:202104121700;;442846
ASUS44 KJAN 121610
RWRMS 

MISSISSIPPI HOURLY WEATHER ROUNDUP
NATIONAL WEATHER SERVICE JACKSON MS
1100 AM CDT MON APR 12 2021

NOTE: "FAIR: INDICATES FEW OR NO CLOUDS BELOW 12,000 FEET WITH NO
SIGNIFICANT WEATHER AND/OR OBSTRUCTIONS TO VISIBILITY.


MSZ003>006-009-014>017-022>024-029>033-037>039-121700-
NORTHEAST MISSISSIPPI
  
CITY           SKY/WX    TMP DP  RH WIND       PRES   REMARKS
ABERDEEN       FAIR      73  50  43 VRB3G12   29.93R                  
COLUMBUS AFB   SUNNY     75  48  38 NW3       29.91R                  
CORINTH        SUNNY     73  50  43 N9        29.89S                  
GOLDN TRIANGLE SUNNY     76  49  38 VRB3      29.92R                  
STARKVILLE     FAIR      73  50  43 CALM      29.93R                  
TUPELO         SUNNY     76  48  37 W6        29.91R                  
$$


SKY/WX - Weather  TMP - Temperature  DP - Dew Point  RH - Relative Humidity
WIND - Wind Direction/Speed PRES - Barometric Pressure VSB - Visibility
WCI - Wind Chill Index E13G22 Wind - East Wind 13 mph/Gusts of 22 mph